TimeMST,TemperatureF,Dew PointF,Humidity,Sea Level PressureIn,VisibilityMPH,Wind Direction,Wind SpeedMPH,Gust SpeedMPH,PrecipitationIn,Events,Conditions,WindDirDegrees,DateUTC
12:53 AM,39.0,23.0,53,29.62,10.0,SW,12.7,-,N/A,,Clear,220,2013-11-03 06:53:00
1:53 AM,41.0,21.0,45,29.62,10.0,SW,17.3,25.3,N/A,,Clear,220,2013-11-03 07:53:00
1:53 AM,36.0,19.9,52,29.65,10.0,SW,10.4,-,N/A,,Clear,220,2013-11-03 08:53:00
2:53 AM,34.0,21.0,59,29.66,10.0,SSW,12.7,-,N/A,,Clear,210,2013-11-03 09:53:00
3:53 AM,32.0,21.0,64,29.66,10.0,SSW,13.8,-,N/A,,Clear,210,2013-11-03 10:53:00
4:53 AM,34.0,19.9,56,29.67,10.0,SSW,13.8,-,N/A,,Scattered Clouds,210,2013-11-03 11:53:00
5:53 AM,36.0,18.0,48,29.67,10.0,SW,19.6,26.5,N/A,,Overcast,230,2013-11-03 12:53:00
6:53 AM,33.1,18.0,54,29.70,10.0,SSW,13.8,-,N/A,,Mostly Cloudy,210,2013-11-03 13:53:00
7:53 AM,34.0,19.0,54,29.73,10.0,SW,13.8,-,N/A,,Overcast,220,2013-11-03 14:53:00
8:53 AM,37.0,19.9,50,29.73,10.0,SW,16.1,-,N/A,,Overcast,230,2013-11-03 15:53:00
9:53 AM,37.0,26.1,65,29.75,10.0,NW,12.7,23.0,N/A,,Mostly Cloudy,320,2013-11-03 16:53:00
10:12 AM,35.6,26.6,70,29.70,10.0,NW,16.1,-,N/A,,Mostly Cloudy,320,2013-11-03 17:12:00
10:53 AM,35.1,28.0,76,29.80,10.0,NW,11.5,-,N/A,,Mostly Cloudy,320,2013-11-03 17:53:00
11:53 AM,35.1,26.1,70,29.82,10.0,NNW,11.5,-,N/A,,Overcast,340,2013-11-03 18:53:00
12:53 PM,34.0,27.0,75,29.83,10.0,NNW,16.1,-,N/A,,Overcast,330,2013-11-03 19:53:00
1:14 PM,33.8,28.4,81,29.76,1.5,NW,11.5,-,0.00,Snow,Light Snow,320,2013-11-03 20:14:00
1:34 PM,33.8,26.6,75,29.76,3.0,NNW,16.1,-,0.00,Snow,Light Snow,330,2013-11-03 20:34:00
1:46 PM,33.8,24.8,70,29.77,9.0,NW,12.7,-,0.00,Snow,Light Snow,320,2013-11-03 20:46:00
1:53 PM,34.0,26.1,73,29.86,9.0,NNW,12.7,-,0.00,,Overcast,330,2013-11-03 20:53:00
2:20 PM,33.8,24.8,70,29.78,2.0,NW,12.7,-,0.00,Snow,Light Snow,320,2013-11-03 21:20:00
2:41 PM,32.0,26.6,80,29.80,1.0,NNW,15.0,21.9,0.00,Snow,Light Snow,330,2013-11-03 21:41:00
2:53 PM,30.9,26.1,82,29.91,1.0,NW,16.1,-,0.00,Snow,Light Snow,320,2013-11-03 21:53:00
3:21 PM,30.2,26.6,86,29.82,2.0,NNW,13.8,23.0,0.00,Snow,Light Snow,330,2013-11-03 22:21:00
3:32 PM,30.2,26.6,86,29.82,1.2,NNW,13.8,-,0.00,Snow,Light Snow,330,2013-11-03 22:32:00
3:47 PM,30.2,26.6,86,29.83,2.0,NW,19.6,24.2,0.00,Snow,Light Snow,320,2013-11-03 22:47:00
3:53 PM,30.0,25.0,82,29.95,2.0,NW,16.1,24.2,0.01,Snow,Light Snow,320,2013-11-03 22:53:00
4:02 PM,30.2,26.6,86,29.83,9.0,NW,12.7,-,0.00,,Overcast,310,2013-11-03 23:02:00
4:53 PM,30.0,25.0,82,29.96,3.0,NW,11.5,-,0.00,Snow,Light Snow,310,2013-11-03 23:53:00
5:07 PM,30.2,24.8,80,29.85,3.0,NNW,13.8,-,0.00,Snow,Light Snow,330,2013-11-04 00:07:00
5:21 PM,30.2,24.8,80,29.86,2.0,WNW,10.4,-,0.00,Snow,Light Snow,300,2013-11-04 00:21:00
5:33 PM,30.2,24.8,80,29.87,3.0,NW,11.5,-,0.00,Snow,Light Snow,320,2013-11-04 00:33:00
5:53 PM,30.0,24.1,79,29.99,8.0,NW,11.5,-,0.00,Snow,Light Snow,310,2013-11-04 00:53:00
6:03 PM,28.4,24.8,86,29.88,9.0,NW,11.5,-,0.00,,Overcast,310,2013-11-04 01:03:00
6:53 PM,28.0,24.1,85,30.02,5.0,NNW,9.2,-,0.00,Snow,Light Snow,330,2013-11-04 01:53:00
7:18 PM,28.4,24.8,86,29.90,3.0,NW,6.9,-,0.00,Snow,Light Snow,310,2013-11-04 02:18:00
7:33 PM,28.4,24.8,86,29.91,4.0,WNW,6.9,-,0.00,Snow,Light Snow,300,2013-11-04 02:33:00
7:49 PM,28.4,24.8,86,29.91,5.0,NW,9.2,-,0.00,Snow,Light Snow,320,2013-11-04 02:49:00
7:53 PM,27.0,25.0,92,30.04,6.0,NW,8.1,-,0.00,Snow,Light Snow,320,2013-11-04 02:53:00
8:27 PM,26.6,24.8,93,29.92,7.0,Calm,Calm,-,0.00,Snow,Light Snow,0,2013-11-04 03:27:00
8:53 PM,27.0,24.1,89,30.04,10.0,NW,9.2,-,0.00,,Overcast,310,2013-11-04 03:53:00
9:07 PM,26.6,24.8,93,29.92,10.0,NW,8.1,-,N/A,,Overcast,310,2013-11-04 04:07:00
9:19 PM,26.6,24.8,93,29.93,10.0,NW,6.9,-,N/A,,Overcast,310,2013-11-04 04:19:00
9:46 PM,26.6,24.8,93,29.94,4.0,NW,8.1,-,0.00,Snow,Light Snow,310,2013-11-04 04:46:00
9:53 PM,27.0,24.1,89,30.06,4.0,WNW,8.1,-,0.00,Snow,Light Snow,300,2013-11-04 04:53:00
10:01 PM,26.6,24.8,93,29.94,5.0,NW,9.2,-,0.00,Snow,Light Snow,310,2013-11-04 05:01:00
10:53 PM,26.1,24.1,92,30.07,6.0,NW,6.9,-,0.00,Snow,Light Snow,310,2013-11-04 05:53:00